When you browse on this site, cookies collect data to enhance your experience and personalize the content and advertising you see.
Visit our Privacy Policy to learn more. By continuing to use the site, you agree to this use of cookies and data.
  • In Latvia
  • List of Countries
  • For 7 days
  • Water Temperature
  • Satellite Maps
  • Weather Map
  • Weather Widgets
  • user-avatar
    Login

    Hourly Weather Kalat

    Today, 17 February, Sunday

    Time Temperature Precipitation Wind Pressure Humidity
    00:00 -17°C° 0.1 mm 4 mps 465 mmHg 67%
    01:00 -17°C° 0.1 mm 4 mps 465 mmHg 74%
    02:00 -17°C° 0.1 mm 5 mps 465 mmHg 81%
    03:00 -17°C° 0.4 mm 5 mps 465 mmHg 83%
    04:00 -17°C° 0.4 mm 5 mps 465 mmHg 85%
    05:00 -16°C° 0 mm 4 mps 466 mmHg 88%
    06:00 -15°C° 0.3 mm 4 mps 466 mmHg 87%
    07:00 -15°C° 0.3 mm 5 mps 466 mmHg 86%
    08:00 -15°C° 0.3 mm 5 mps 466 mmHg 85%
    09:00 -14°C° 0.2 mm 5 mps 467 mmHg 84%
    10:00 -12°C° 0.2 mm 5 mps 468 mmHg 83%
    11:00 -12°C° 0 mm 7 mps 468 mmHg 82%
    12:00 -11°C° 0.3 mm 6 mps 468 mmHg 82%
    13:00 -11°C° 0.3 mm 6 mps 468 mmHg 81%
    14:00 -10°C° 0.3 mm 5 mps 468 mmHg 81%
    15:00 -10°C° 0.6 mm 4 mps 468 mmHg 83%
    16:00 -11°C° 0.6 mm 4 mps 467 mmHg 85%
    17:00 -9°C° 0 mm 2 mps 467 mmHg 83%
    18:00 -10°C° 0.5 mm 2 mps 466 mmHg 86%
    19:00 -12°C° 0.5 mm 2 mps 466 mmHg 89%
    20:00 -13°C° 0.5 mm 2 mps 465 mmHg 92%
    21:00 -13°C° 0.8 mm 2 mps 465 mmHg 92%
    22:00 -14°C° 0.8 mm 2 mps 464 mmHg 92%
    23:00 -15°C° 0.8 mm 2 mps 464 mmHg 92%

    Tomorrow, 18 February, Monday

    Time Temperature Precipitation Wind Pressure Humidity
    00:00 -15°C° 0.5 mm 2 mps 464 mmHg 92%
    01:00 -15°C° 0.5 mm 2 mps 463 mmHg 91%
    02:00 -16°C° 0.5 mm 2 mps 463 mmHg 91%
    03:00 -14°C° 0.4 mm 1 mps 462 mmHg 91%
    04:00 -14°C° 0.4 mm 1 mps 462 mmHg 91%
    05:00 -14°C° 0.4 mm 1 mps 462 mmHg 91%
    06:00 -14°C° 0.3 mm 1 mps 462 mmHg 91%
    07:00 -16°C° 0.3 mm 2 mps 463 mmHg 91%
    08:00 -15°C° 0.3 mm 2 mps 463 mmHg 90%
    09:00 -15°C° 0.3 mm 2 mps 463 mmHg 87%
    10:00 -14°C° 0.3 mm 2 mps 464 mmHg 84%
    11:00 -13°C° 0.3 mm 2 mps 465 mmHg 80%
    12:00 -14°C° 0.3 mm 3 mps 465 mmHg 79%
    13:00 -14°C° 0.3 mm 3 mps 464 mmHg 79%
    14:00 -13°C° 0.3 mm 3 mps 464 mmHg 78%
    15:00 -13°C° 0.3 mm 2 mps 464 mmHg 81%
    16:00 -13°C° 0.3 mm 2 mps 464 mmHg 83%
    17:00 -14°C° 0.3 mm 2 mps 464 mmHg 86%
    18:00 -16°C° 0.1 mm 2 mps 463 mmHg 87%
    19:00 -17°C° 0.1 mm 1 mps 461 mmHg 89%
    20:00 -19°C° 0.1 mm 1 mps 459 mmHg 90%
    21:00 -20°C° 0 mm 1 mps 459 mmHg 88%
    22:00 -21°C° 0 mm 1 mps 459 mmHg 86%
    23:00 -24°C° 0 mm 2 mps 458 mmHg 83%

    Day after tomorrow, 19 February, Tuesday

    Time Temperature Precipitation Wind Pressure Humidity
    00:00 -24°C° 0 mm 2 mps 458 mmHg 83%
    01:00 -24°C° 0 mm 2 mps 458 mmHg 82%
    02:00 -26°C° 0 mm 3 mps 458 mmHg 82%
    03:00 -26°C° 0 mm 3 mps 458 mmHg 82%
    04:00 -26°C° 0 mm 3 mps 458 mmHg 82%
    05:00 -26°C° 0 mm 3 mps 458 mmHg 82%
    06:00 -25°C° 0 mm 3 mps 459 mmHg 81%
    07:00 -24°C° 0 mm 3 mps 460 mmHg 81%
    08:00 -25°C° 0 mm 4 mps 461 mmHg 80%
    09:00 -22°C° 0 mm 4 mps 462 mmHg 77%
    10:00 -18°C° 0 mm 4 mps 464 mmHg 74%
    11:00 -15°C° 0 mm 4 mps 466 mmHg 71%
    12:00 -15°C° 0 mm 5 mps 466 mmHg 69%
    13:00 -14°C° 0 mm 5 mps 466 mmHg 68%
    14:00 -14°C° 0 mm 5 mps 466 mmHg 66%
    15:00 -14°C° 0.1 mm 5 mps 466 mmHg 70%
    16:00 -15°C° 0.1 mm 4 mps 466 mmHg 74%
    17:00 -15°C° 0.1 mm 4 mps 466 mmHg 78%
    18:00 -17°C° 0.1 mm 4 mps 466 mmHg 80%
    19:00 -18°C° 0.1 mm 4 mps 465 mmHg 81%
    20:00 -20°C° 0.1 mm 4 mps 465 mmHg 83%
    21:00 -20°C° 0.1 mm 4 mps 465 mmHg 83%
    22:00 -20°C° 0.1 mm 4 mps 465 mmHg 84%
    23:00 -20°C° 0.1 mm 4 mps 466 mmHg 84%

    20 February, Wednesday

    Time Temperature Precipitation Wind Pressure Humidity
    00:00 -20°C° 0.2 mm 4 mps 466 mmHg 85%
    01:00 -20°C° 0.2 mm 4 mps 466 mmHg 86%
    02:00 -19°C° 0.2 mm 4 mps 466 mmHg 86%
    03:00 -19°C° 0.2 mm 4 mps 466 mmHg 86%
    04:00 -19°C° 0.2 mm 4 mps 466 mmHg 86%
    05:00 -19°C° 0.2 mm 4 mps 466 mmHg 86%
    06:00 -19°C° 0.1 mm 4 mps 466 mmHg 85%
    07:00 -18°C° 0.1 mm 4 mps 467 mmHg 85%
    08:00 -18°C° 0.1 mm 4 mps 467 mmHg 84%
    09:00 -16°C° 0.2 mm 4 mps 468 mmHg 82%
    10:00 -15°C° 0.2 mm 4 mps 469 mmHg 79%
    11:00 -12°C° 0.2 mm 4 mps 470 mmHg 77%
    12:00 -12°C° 0.2 mm 4 mps 470 mmHg 76%
    13:00 -11°C° 0.2 mm 4 mps 470 mmHg 75%
    14:00 -10°C° 0.2 mm 4 mps 470 mmHg 74%
    15:00 -11°C° 0.3 mm 4 mps 470 mmHg 77%
    16:00 -11°C° 0.3 mm 4 mps 469 mmHg 80%
    17:00 -12°C° 0.3 mm 4 mps 469 mmHg 83%
    18:00 -12°C° 0.6 mm 4 mps 469 mmHg 84%
    19:00 -13°C° 0.6 mm 3 mps 468 mmHg 85%
    20:00 -14°C° 0.6 mm 3 mps 468 mmHg 86%
    21:00 -14°C° 0.6 mm 3 mps 468 mmHg 87%
    22:00 -14°C° 0.6 mm 3 mps 468 mmHg 87%
    23:00 -15°C° 0.6 mm 4 mps 468 mmHg 87%

    21 February, Thursday

    Time Temperature Precipitation Wind Pressure Humidity
    00:00 -14°C° 0.4 mm 3 mps 468 mmHg 87%
    01:00 -14°C° 0.4 mm 3 mps 467 mmHg 87%
    02:00 -14°C° 0.4 mm 3 mps 467 mmHg 87%
    03:00 -13°C° 0.3 mm 2 mps 467 mmHg 87%
    04:00 -13°C° 0.3 mm 2 mps 466 mmHg 87%
    05:00 -14°C° 0.3 mm 2 mps 466 mmHg 87%
    06:00 -13°C° 0.1 mm 2 mps 467 mmHg 86%
    07:00 -13°C° 0.1 mm 2 mps 467 mmHg 86%
    08:00 -13°C° 0.1 mm 2 mps 468 mmHg 86%
    09:00 -13°C° 0.2 mm 3 mps 469 mmHg 82%
    10:00 -12°C° 0.2 mm 3 mps 470 mmHg 79%
    11:00 -10°C° 0.2 mm 4 mps 471 mmHg 75%
    12:00 -10°C° 0.3 mm 4 mps 470 mmHg 75%
    13:00 -10°C° 0.3 mm 4 mps 470 mmHg 75%
    14:00 -10°C° 0.3 mm 4 mps 470 mmHg 75%
    15:00 -11°C° 0.5 mm 4 mps 469 mmHg 79%
    16:00 -12°C° 0.5 mm 3 mps 469 mmHg 83%
    17:00 -12°C° 0.5 mm 3 mps 469 mmHg 87%
    18:00 -12°C° 0.3 mm 2 mps 468 mmHg 87%
    19:00 -13°C° 0.3 mm 2 mps 468 mmHg 87%
    20:00 -12°C° 0.3 mm 1 mps 468 mmHg 87%
    21:00 -14°C° 0.1 mm 2 mps 467 mmHg 86%
    22:00 -15°C° 0.1 mm 2 mps 467 mmHg 85%
    23:00 -16°C° 0.1 mm 3 mps 467 mmHg 84%

    22 February, Friday

    Time Temperature Precipitation Wind Pressure Humidity
    00:00 -17°C° 0.1 mm 3 mps 466 mmHg 84%
    01:00 -18°C° 0.1 mm 3 mps 466 mmHg 84%
    02:00 -18°C° 0.1 mm 3 mps 465 mmHg 84%
    03:00 -18°C° 0.1 mm 3 mps 465 mmHg 84%
    04:00 -17°C° 0.1 mm 2 mps 465 mmHg 85%
    05:00 -18°C° 0.1 mm 2 mps 465 mmHg 85%
    06:00 -17°C° 0.1 mm 2 mps 465 mmHg 85%
    07:00 -18°C° 0.1 mm 3 mps 466 mmHg 85%
    08:00 -18°C° 0.1 mm 3 mps 466 mmHg 85%
    09:00 -17°C° 0 mm 3 mps 467 mmHg 78%
    10:00 -16°C° 0 mm 3 mps 468 mmHg 72%
    11:00 -15°C° 0 mm 4 mps 469 mmHg 66%
    12:00 -15°C° 0 mm 4 mps 469 mmHg 64%
    13:00 -15°C° 0 mm 4 mps 469 mmHg 63%
    14:00 -14°C° 0 mm 4 mps 469 mmHg 62%
    15:00 -15°C° 0 mm 4 mps 468 mmHg 66%
    16:00 -15°C° 0 mm 3 mps 468 mmHg 70%
    17:00 -15°C° 0 mm 3 mps 467 mmHg 75%
    18:00 -17°C° 0 mm 3 mps 466 mmHg 77%
    19:00 -21°C° 0 mm 3 mps 465 mmHg 79%
    20:00 -23°C° 0 mm 3 mps 463 mmHg 81%
    21:00 -24°C° 0 mm 3 mps 463 mmHg 82%
    22:00 -24°C° 0 mm 3 mps 463 mmHg 82%
    23:00 -25°C° 0 mm 3 mps 463 mmHg 83%
    Show more